QPF
0.05 0.07 0.05 0.04 0.04 0.03 0.03 0.03 0.03 0.03 0.03 0.03 0.04 0.03 0.02 0.01 0.01 0.01 0.01 0.01 0.01 0.01 0.02 0.02 0.01 0.01 0.00 0.00 0.00 0.00 0.00 0.00 0.01 0.00 0.00 0.00 0.00 0.00 0.00 0.00 0.00 0.00 0.00
0.03 0.05 0.05 0.05 0.04 0.03 0.04 0.03 0.02 0.02 0.02 0.03 0.03 0.04 0.04 0.03 0.02 0.02 0.01 0.01 0.01 0.01 0.01 0.01 0.01 0.01 0.01 0.00 0.00 0.00 0.00 0.00 0.00 0.00 0.00 0.00 0.00 0.00 0.00 0.00 0.00 0.00 0.00
0.02 0.03 0.04 0.05 0.04 0.03 0.03 0.03 0.02 0.02 0.02 0.02 0.02 0.02 0.03 0.04 0.04 0.04 0.03 0.03 0.02 0.01 0.01 0.01 0.01 0.01 0.00 0.00 0.00 0.00 0.00 0.00 0.00 0.00 0.00 0.00 0.00 0.00 0.00 0.00 0.00 0.00 0.00
0.01 0.02 0.03 0.03 0.03 0.03 0.03 0.02 0.01 0.01 0.01 0.02 0.02 0.02 0.02 0.03 0.05 0.05 0.04 0.04 0.04 0.04 0.02 0.02 0.01 0.01 0.00 0.00 0.00 0.00 0.00 0.00 0.00 0.00 0.00 0.00 0.00 0.00 0.00 0.00 0.00 0.00 0.00
0.01 0.01 0.03 0.03 0.02 0.02 0.02 0.01 0.01 0.01 0.01 0.01 0.02 0.02 0.02 0.02 0.03 0.04 0.04 0.04 0.03 0.04 0.03 0.03 0.03 0.02 0.01 0.00 0.00 0.00 0.00 0.00 0.00 0.01 0.01 0.00 0.00 0.00 0.00 0.00 0.00 0.00 0.00
0.02 0.01 0.02 0.02 0.02 0.01 0.01 0.01 0.01 0.01 0.01 0.01 0.01 0.01 0.01 0.01 0.02 0.02 0.02 0.02 0.02 0.02 0.02 0.02 0.02 0.02 0.01 0.01 0.00 0.00 0.00 0.01 0.01 0.01 0.01 0.01 0.00 0.00 0.00 0.00 0.01 0.01 0.00
0.01 0.01 0.02 0.02 0.02 0.01 0.01 0.00 0.00 0.01 0.01 0.01 0.01 0.01 0.01 0.01 0.02 0.02 0.02 0.01 0.01 0.01 0.01 0.01 0.01 0.01 0.01 0.01 0.01 0.00 0.00 0.00 0.00 0.01 0.01 0.01 0.00 0.00 0.01 0.01 0.01 0.01 0.01
0.01 0.01 0.02 0.02 0.02 0.01 0.01 0.01 0.00 0.01 0.01 0.01 0.01 0.01 0.01 0.01 0.02 0.03 0.02 0.02 0.01 0.01 0.01 0.01 0.01 0.01 0.01 0.00 0.00 0.00 0.00 0.00 0.00 0.00 0.00 0.00 0.00 0.00 0.01 0.01 0.01 0.01 0.00
0.00 0.01 0.01 0.01 0.01 0.01 0.01 0.01 0.00 0.00 0.00 0.01 0.01 0.02 0.02 0.01 0.02 0.02 0.03 0.02 0.02 0.01 0.01 0.01 0.01 0.01 0.01 0.01 0.00 0.00 0.00 0.00 0.00 0.00 0.00 0.00 0.00 0.00 0.00 0.00 0.01 0.01 0.00
0.00 0.00 0.01 0.02 0.01 0.01 0.01 0.01 0.01 0.00 0.00 0.00 0.01 0.01 0.01 0.02 0.02 0.02 0.02 0.02 0.03 0.02 0.02 0.01 0.01 0.01 0.01 0.01 0.01 0.00 0.00 0.00 0.00 0.00 0.00 0.00 0.00 0.00 0.00 0.00 0.01 0.02 0.01
0.00 0.00 0.01 0.01 0.01 0.01 0.01 0.01 0.01 0.00 0.00 0.00 0.01 0.01 0.01 0.01 0.02 0.02 0.02 0.02 0.02 0.03 0.03 0.02 0.02 0.02 0.02 0.01 0.01 0.01 0.01 0.00 0.00 0.00 0.00 0.00 0.00 0.00 0.00 0.00 0.01 0.02 0.02
0.00 0.00 0.01 0.00 0.00 0.00 0.01 0.01 0.01 0.01 0.01 0.01 0.01 0.01 0.01 0.01 0.01 0.01 0.02 0.02 0.01 0.01 0.02 0.02 0.02 0.02 0.02 0.02 0.01 0.01 0.01 0.01 0.01 0.01 0.00 0.00 0.00 0.00 0.00 0.00 0.00 0.01 0.01
0.01 0.00 0.01 0.00 0.00 0.00 0.00 0.01 0.01 0.01 0.01 0.01 0.01 0.01 0.01 0.01 0.01 0.01 0.01 0.01 0.01 0.01 0.01 0.01 0.01 0.01 0.01 0.01 0.01 0.01 0.01 0.01 0.01 0.01 0.01 0.01 0.01 0.00 0.00 0.00 0.00 0.00 0.00
0.01 0.01 0.01 0.01 0.00 0.00 0.00 0.00 0.00 0.00 0.00 0.00 0.01 0.01 0.01 0.01 0.01 0.01 0.01 0.01 0.01 0.01 0.01 0.01 0.01 0.01 0.01 0.01 0.01 0.01 0.01 0.01 0.01 0.01 0.01 0.01 0.01 0.01 0.01 0.01 0.01 0.00 0.00
0.01 0.01 0.01 0.01 0.01 0.00 0.00 0.00 0.00 0.00 0.00 0.00 0.00 0.01 0.01 0.01 0.01 0.01 0.02 0.01 0.01 0.01 0.01 0.01 0.01 0.01 0.01 0.01 0.01 0.01 0.01 0.00 0.00 0.01 0.00 0.01 0.01 0.01 0.01 0.01 0.01 0.01 0.01
0.01 0.01 0.01 0.01 0.01 0.00 0.00 0.00 0.00 0.00 0.00 0.00 0.00 0.01 0.01 0.01 0.01 0.02 0.02 0.02 0.02 0.02 0.02 0.02 0.02 0.01 0.01 0.01 0.01 0.01 0.00 0.00 0.00 0.00 0.01 0.01 0.01 0.01 0.01 0.00 0.01 0.01 0.01
0.01 0.01 0.01 0.01 0.01 0.01 0.00 0.00 0.01 0.01 0.01 0.01 0.01 0.01 0.01 0.02 0.02 0.02 0.02 0.02 0.02 0.02 0.02 0.02 0.02 0.02 0.01 0.01 0.01 0.01 0.01 0.01 0.01 0.01 0.01 0.01 0.01 0.01 0.01 0.01 0.01 0.01 0.01
0.02 0.01 0.01 0.01 0.01 0.01 0.01 0.01 0.01 0.01 0.02 0.02 0.02 0.02 0.02 0.02 0.02 0.02 0.02 0.02 0.02 0.02 0.02 0.02 0.02 0.02 0.02 0.02 0.02 0.02 0.01 0.01 0.01 0.01 0.01 0.02 0.02 0.02 0.02 0.01 0.01 0.01 0.01
0.02 0.02 0.02 0.02 0.02 0.02 0.02 0.02 0.02 0.02 0.02 0.01 0.01 0.01 0.01 0.01 0.01 0.01 0.01 0.02 0.02 0.02 0.02 0.02 0.02 0.02 0.02 0.02 0.02 0.02 0.02 0.02 0.02 0.02 0.02 0.02 0.02 0.02 0.02 0.02 0.01 0.01 0.01
0.03 0.03 0.02 0.02 0.02 0.02 0.02 0.02 0.02 0.02 0.02 0.01 0.01 0.01 0.01 0.01 0.01 0.01 0.01 0.01 0.01 0.02 0.01 0.01 0.02 0.02 0.02 0.02 0.02 0.02 0.02 0.02 0.02 0.03 0.03 0.03 0.03 0.02 0.02 0.02 0.01 0.01 0.01
0.03 0.03 0.02 0.02 0.02 0.02 0.02 0.02 0.02 0.02 0.02 0.02 0.01 0.01 0.01 0.01 0.01 0.01 0.01 0.01 0.01 0.02 0.02 0.02 0.02 0.02 0.02 0.02 0.03 0.03 0.03 0.03 0.03 0.03 0.03 0.03 0.02 0.02 0.01 0.01 0.01 0.01 0.01
0.03 0.03 0.02 0.02 0.02 0.02 0.01 0.02 0.02 0.02 0.01 0.01 0.01 0.01 0.01 0.01 0.01 0.01 0.01 0.01 0.01 0.01 0.01 0.01 0.02 0.02 0.02 0.03 0.03 0.03 0.03 0.03 0.03 0.03 0.03 0.02 0.02 0.01 0.01 0.01 0.01 0.01 0.01
0.04 0.03 0.02 0.02 0.02 0.02 0.02 0.02 0.01 0.01 0.01 0.01 0.01 0.01 0.01 0.01 0.01 0.01 0.01 0.01 0.01 0.01 0.01 0.01 0.01 0.01 0.02 0.02 0.03 0.03 0.04 0.03 0.03 0.03 0.02 0.02 0.01 0.01 0.01 0.01 0.01 0.01 0.01
0.03 0.03 0.02 0.02 0.02 0.02 0.01 0.01 0.01 0.01 0.01 0.01 0.01 0.01 0.01 0.01 0.01 0.01 0.01 0.01 0.01 0.01 0.01 0.01 0.01 0.01 0.02 0.02 0.02 0.03 0.03 0.03 0.02 0.02 0.02 0.02 0.02 0.01 0.01 0.01 0.01 0.01 0.01
0.02 0.02 0.02 0.02 0.02 0.02 0.01 0.01 0.01 0.01 0.01 0.01 0.01 0.01 0.01 0.01 0.01 0.01 0.01 0.01 0.01 0.01 0.01 0.01 0.01 0.02 0.02 0.02 0.02 0.02 0.02 0.02 0.02 0.02 0.02 0.03 0.02 0.02 0.01 0.01 0.01 0.01 0.01
0.02 0.02 0.02 0.01 0.01 0.01 0.01 0.01 0.01 0.01 0.01 0.01 0.01 0.01 0.01 0.01 0.01 0.01 0.01 0.01 0.01 0.01 0.01 0.01 0.01 0.02 0.02 0.02 0.02 0.01 0.01 0.01 0.01 0.02 0.02 0.02 0.02 0.02 0.01 0.01 0.01 0.01 0.02
MSLP
1005.40 1006.39 1007.37 1008.30 1009.17 1009.98 1010.72 1011.43 1012.13 1012.83 1013.55 1014.28 1015.03 1015.77 1016.49 1017.18 1017.83 1018.43 1018.98 1019.50 1019.98 1020.44 1020.86 1021.24 1021.59 1021.88 1022.13 1022.31 1022.44 1022.51 1022.54 1022.52 1022.46 1022.37 1022.23 1022.06 1021.86 1021.63 1021.38 1021.12 1020.84 1020.56 1020.27
1005.25 1006.22 1007.19 1008.12 1008.98 1009.77 1010.51 1011.22 1011.92 1012.62 1013.34 1014.08 1014.83 1015.58 1016.30 1016.99 1017.63 1018.22 1018.76 1019.26 1019.72 1020.15 1020.54 1020.90 1021.23 1021.52 1021.76 1021.97 1022.13 1022.26 1022.35 1022.40 1022.42 1022.39 1022.32 1022.20 1022.02 1021.80 1021.54 1021.24 1020.91 1020.56 1020.17
1005.26 1006.19 1007.13 1008.03 1008.87 1009.64 1010.36 1011.05 1011.73 1012.43 1013.14 1013.89 1014.64 1015.39 1016.12 1016.81 1017.45 1018.04 1018.58 1019.06 1019.50 1019.91 1020.28 1020.61 1020.92 1021.19 1021.44 1021.65 1021.84 1022.01 1022.15 1022.27 1022.35 1022.39 1022.39 1022.32 1022.18 1021.97 1021.70 1021.37 1020.98 1020.54 1020.06
1005.47 1006.35 1007.24 1008.09 1008.88 1009.61 1010.30 1010.96 1011.62 1012.31 1013.02 1013.75 1014.51 1015.26 1016.00 1016.70 1017.35 1017.94 1018.48 1018.96 1019.39 1019.78 1020.13 1020.44 1020.73 1020.98 1021.20 1021.41 1021.61 1021.79 1021.97 1022.13 1022.27 1022.37 1022.42 1022.41 1022.31 1022.12 1021.85 1021.48 1021.04 1020.53 1019.95
1005.91 1006.72 1007.53 1008.32 1009.06 1009.74 1010.39 1011.02 1011.66 1012.33 1013.03 1013.76 1014.52 1015.28 1016.02 1016.72 1017.38 1017.99 1018.53 1019.01 1019.44 1019.82 1020.15 1020.43 1020.69 1020.90 1021.10 1021.29 1021.47 1021.65 1021.83 1022.02 1022.19 1022.34 1022.43 1022.46 1022.40 1022.24 1021.97 1021.59 1021.10 1020.52 1019.86
1006.55 1007.28 1008.03 1008.74 1009.42 1010.05 1010.66 1011.26 1011.89 1012.54 1013.24 1013.97 1014.72 1015.48 1016.23 1016.94 1017.60 1018.21 1018.76 1019.24 1019.67 1020.03 1020.34 1020.60 1020.82 1021.00 1021.16 1021.30 1021.45 1021.60 1021.77 1021.95 1022.14 1022.30 1022.43 1022.48 1022.45 1022.31 1022.05 1021.67 1021.16 1020.53 1019.81
1007.38 1008.03 1008.69 1009.34 1009.96 1010.56 1011.14 1011.72 1012.33 1012.98 1013.68 1014.41 1015.16 1015.91 1016.66 1017.36 1018.03 1018.63 1019.17 1019.65 1020.06 1020.41 1020.70 1020.93 1021.11 1021.25 1021.36 1021.46 1021.56 1021.67 1021.80 1021.96 1022.12 1022.28 1022.41 1022.49 1022.47 1022.35 1022.10 1021.72 1021.20 1020.55 1019.79
1008.33 1008.90 1009.50 1010.10 1010.68 1011.24 1011.81 1012.39 1013.01 1013.66 1014.36 1015.09 1015.83 1016.58 1017.30 1017.99 1018.63 1019.21 1019.74 1020.20 1020.59 1020.92 1021.18 1021.39 1021.54 1021.64 1021.71 1021.75 1021.80 1021.86 1021.94 1022.05 1022.17 1022.30 1022.42 1022.48 1022.46 1022.34 1022.10 1021.72 1021.21 1020.56 1019.78
1009.35 1009.87 1010.42 1010.97 1011.53 1012.09 1012.66 1013.25 1013.88 1014.55 1015.25 1015.97 1016.70 1017.42 1018.12 1018.77 1019.38 1019.92 1020.41 1020.84 1021.20 1021.51 1021.75 1021.93 1022.06 1022.13 1022.16 1022.16 1022.16 1022.17 1022.19 1022.24 1022.30 1022.38 1022.44 1022.47 1022.43 1022.30 1022.05 1021.68 1021.17 1020.52 1019.75
1010.42 1010.89 1011.41 1011.94 1012.49 1013.05 1013.64 1014.26 1014.91 1015.59 1016.29 1017.01 1017.72 1018.40 1019.05 1019.65 1020.20 1020.69 1021.13 1021.52 1021.85 1022.13 1022.35 1022.51 1022.62 1022.68 1022.69 1022.66 1022.62 1022.57 1022.54 1022.52 1022.51 1022.51 1022.51 1022.47 1022.38 1022.22 1021.95 1021.56 1021.06 1020.43 1019.67
1011.53 1011.97 1012.46 1012.98 1013.54 1014.12 1014.73 1015.37 1016.04 1016.73 1017.43 1018.13 1018.80 1019.44 1020.02 1020.56 1021.04 1021.47 1021.85 1022.19 1022.48 1022.74 1022.94 1023.10 1023.20 1023.25 1023.25 1023.21 1023.14 1023.06 1022.96 1022.88 1022.79 1022.71 1022.62 1022.50 1022.34 1022.11 1021.80 1021.40 1020.88 1020.26 1019.52
1012.69 1013.11 1013.58 1014.10 1014.66 1015.26 1015.89 1016.54 1017.22 1017.91 1018.60 1019.26 1019.89 1020.46 1020.99 1021.45 1021.86 1022.22 1022.54 1022.83 1023.08 1023.31 1023.50 1023.65 1023.76 1023.82 1023.83 1023.78 1023.70 1023.58 1023.44 1023.29 1023.12 1022.95 1022.76 1022.55 1022.30 1022.00 1021.63 1021.19 1020.66 1020.03 1019.30
1013.92 1014.32 1014.78 1015.29 1015.85 1016.45 1017.09 1017.74 1018.41 1019.08 1019.74 1020.35 1020.92 1021.43 1021.88 1022.27 1022.61 1022.90 1023.16 1023.40 1023.62 1023.83 1024.01 1024.16 1024.28 1024.35 1024.37 1024.33 1024.25 1024.11 1023.93 1023.72 1023.48 1023.23 1022.94 1022.64 1022.29 1021.91 1021.48 1020.98 1020.41 1019.77 1019.03
1015.21 1015.60 1016.04 1016.55 1017.10 1017.69 1018.30 1018.94 1019.58 1020.21 1020.81 1021.37 1021.87 1022.31 1022.69 1023.01 1023.28 1023.51 1023.72 1023.91 1024.10 1024.28 1024.46 1024.61 1024.74 1024.82 1024.85 1024.83 1024.74 1024.59 1024.39 1024.14 1023.84 1023.51 1023.15 1022.75 1022.33 1021.86 1021.36 1020.80 1020.19 1019.52 1018.77
1016.55 1016.92 1017.35 1017.84 1018.36 1018.93 1019.51 1020.10 1020.69 1021.26 1021.79 1022.28 1022.71 1023.08 1023.39 1023.65 1023.86 1024.04 1024.21 1024.37 1024.52 1024.68 1024.84 1024.99 1025.12 1025.21 1025.25 1025.23 1025.14 1024.99 1024.78 1024.50 1024.17 1023.78 1023.36 1022.90 1022.41 1021.87 1021.31 1020.69 1020.03 1019.32 1018.54
1017.90 1018.26 1018.67 1019.13 1019.62 1020.14 1020.67 1021.20 1021.72 1022.21 1022.67 1023.08 1023.44 1023.74 1023.99 1024.19 1024.36 1024.50 1024.63 1024.76 1024.89 1025.03 1025.16 1025.30 1025.41 1025.49 1025.53 1025.51 1025.43 1025.28 1025.06 1024.77 1024.42 1024.02 1023.57 1023.07 1022.53 1021.95 1021.33 1020.67 1019.96 1019.20 1018.37
1019.19 1019.54 1019.93 1020.37 1020.82 1021.29 1021.76 1022.22 1022.66 1023.07 1023.45 1023.78 1024.07 1024.30 1024.50 1024.66 1024.79 1024.90 1025.01 1025.11 1025.21 1025.31 1025.42 1025.52 1025.61 1025.67 1025.70 1025.67 1025.58 1025.44 1025.22 1024.94 1024.60 1024.20 1023.74 1023.23 1022.67 1022.07 1021.42 1020.72 1019.96 1019.14 1018.26
1020.37 1020.72 1021.10 1021.51 1021.93 1022.35 1022.76 1023.15 1023.51 1023.84 1024.14 1024.39 1024.61 1024.80 1024.95 1025.07 1025.18 1025.26 1025.34 1025.41 1025.49 1025.56 1025.62 1025.68 1025.73 1025.76 1025.75 1025.71 1025.61 1025.47 1025.26 1025.00 1024.68 1024.30 1023.86 1023.36 1022.80 1022.19 1021.53 1020.80 1020.00 1019.14 1018.20
1021.40 1021.75 1022.13 1022.53 1022.93 1023.31 1023.66 1023.98 1024.27 1024.52 1024.74 1024.93 1025.09 1025.23 1025.34 1025.44 1025.52 1025.59 1025.64 1025.68 1025.72 1025.75 1025.77 1025.78 1025.78 1025.76 1025.71 1025.64 1025.54 1025.39 1025.20 1024.95 1024.66 1024.31 1023.90 1023.42 1022.89 1022.29 1021.61 1020.87 1020.04 1019.13 1018.14
1022.26 1022.63 1023.02 1023.41 1023.79 1024.14 1024.45 1024.71 1024.94 1025.12 1025.28 1025.41 1025.51 1025.61 1025.69 1025.76 1025.82 1025.87 1025.90 1025.91 1025.91 1025.89 1025.86 1025.81 1025.76 1025.69 1025.60 1025.50 1025.37 1025.22 1025.03 1024.81 1024.54 1024.22 1023.84 1023.40 1022.89 1022.30 1021.63 1020.87 1020.02 1019.08 1018.05
1022.97 1023.35 1023.75 1024.15 1024.52 1024.84 1025.11 1025.33 1025.50 1025.63 1025.73 1025.81 1025.87 1025.93 1025.99 1026.03 1026.07 1026.09 1026.09 1026.08 1026.04 1025.97 1025.89 1025.79 1025.68 1025.55 1025.42 1025.28 1025.14 1024.97 1024.79 1024.58 1024.34 1024.04 1023.69 1023.27 1022.77 1022.19 1021.53 1020.76 1019.91 1018.95 1017.89
1023.55 1023.95 1024.35 1024.75 1025.11 1025.41 1025.66 1025.84 1025.96 1026.05 1026.10 1026.13 1026.15 1026.18 1026.20 1026.22 1026.23 1026.23 1026.21 1026.16 1026.08 1025.98 1025.84 1025.69 1025.53 1025.36 1025.19 1025.02 1024.85 1024.68 1024.49 1024.29 1024.05 1023.77 1023.43 1023.02 1022.53 1021.96 1021.29 1020.53 1019.66 1018.70 1017.65
1024.02 1024.43 1024.84 1025.23 1025.57 1025.85 1026.06 1026.20 1026.29 1026.33 1026.34 1026.33 1026.32 1026.31 1026.31 1026.30 1026.29 1026.27 1026.21 1026.14 1026.02 1025.88 1025.71 1025.52 1025.32 1025.12 1024.91 1024.72 1024.53 1024.34 1024.14 1023.93 1023.69 1023.40 1023.06 1022.65 1022.16 1021.58 1020.91 1020.15 1019.30 1018.36 1017.33
1024.42 1024.81 1025.21 1025.57 1025.89 1026.14 1026.31 1026.41 1026.46 1026.46 1026.43 1026.39 1026.35 1026.32 1026.28 1026.26 1026.22 1026.17 1026.10 1025.99 1025.85 1025.68 1025.48 1025.27 1025.04 1024.81 1024.58 1024.37 1024.16 1023.96 1023.75 1023.52 1023.26 1022.96 1022.61 1022.18 1021.67 1021.09 1020.42 1019.67 1018.84 1017.93 1016.96
1024.74 1025.10 1025.46 1025.79 1026.06 1026.26 1026.39 1026.45 1026.46 1026.43 1026.37 1026.30 1026.23 1026.17 1026.12 1026.07 1026.02 1025.95 1025.86 1025.73 1025.57 1025.38 1025.17 1024.93 1024.69 1024.44 1024.21 1023.98 1023.76 1023.54 1023.31 1023.06 1022.78 1022.46 1022.08 1021.63 1021.11 1020.51 1019.85 1019.11 1018.32 1017.47 1016.57
1024.96 1025.28 1025.59 1025.86 1026.07 1026.22 1026.30 1026.32 1026.29 1026.23 1026.14 1026.06 1025.97 1025.90 1025.84 1025.77 1025.71 1025.62 1025.52 1025.38 1025.20 1025.00 1024.78 1024.53 1024.28 1024.03 1023.78 1023.54 1023.31 1023.07 1022.83 1022.56 1022.25 1021.90 1021.49 1021.01 1020.48 1019.88 1019.22 1018.52 1017.77 1017.00 1016.20
Thickness
5542 5542 5542 5542 5541 5540 5539 5538 5538 5537 5537 5537 5536 5535 5534 5533 5532 5531 5530 5530 5530 5529 5528 5527 5526 5525 5523 5521 5518 5515 5512 5509 5508 5510 5508 5506 5504 5501 5500 5497 5496 5494 5492
5530 5531 5530 5530 5529 5529 5528 5527 5527 5527 5526 5526 5526 5525 5524 5523 5522 5521 5521 5520 5520 5519 5519 5517 5516 5515 5513 5511 5509 5506 5503 5500 5497 5498 5498 5495 5493 5491 5489 5488 5486 5484 5482
5518 5518 5518 5518 5517 5517 5517 5517 5516 5516 5515 5515 5515 5514 5513 5513 5513 5512 5511 5511 5511 5510 5509 5508 5507 5505 5503 5501 5499 5497 5494 5491 5488 5486 5486 5484 5482 5480 5479 5478 5477 5475 5472
5506 5506 5506 5506 5506 5506 5506 5505 5505 5505 5504 5504 5504 5503 5503 5503 5503 5502 5501 5501 5500 5500 5500 5499 5497 5496 5494 5492 5490 5487 5484 5481 5478 5475 5474 5473 5471 5469 5467 5466 5467 5465 5463
5494 5494 5494 5493 5493 5493 5493 5493 5493 5493 5493 5492 5492 5492 5492 5492 5493 5492 5491 5491 5490 5490 5489 5488 5487 5486 5485 5482 5481 5478 5475 5472 5468 5466 5464 5462 5461 5458 5456 5454 5454 5454 5454
5481 5481 5481 5481 5481 5481 5481 5481 5480 5480 5480 5480 5480 5480 5480 5481 5482 5482 5481 5480 5480 5479 5478 5477 5477 5475 5475 5473 5471 5469 5465 5462 5459 5455 5453 5451 5450 5447 5446 5443 5441 5441 5443
5468 5469 5469 5469 5468 5468 5468 5468 5468 5467 5467 5467 5468 5468 5468 5469 5470 5471 5471 5469 5468 5467 5467 5466 5466 5465 5463 5461 5460 5458 5455 5452 5449 5445 5443 5441 5439 5438 5435 5434 5430 5428 5427
5456 5456 5456 5456 5456 5455 5455 5455 5454 5454 5454 5455 5455 5455 5456 5457 5458 5459 5459 5458 5457 5456 5456 5455 5454 5453 5452 5451 5449 5447 5444 5441 5439 5436 5434 5433 5430 5428 5425 5423 5421 5419 5419
5443 5443 5444 5444 5444 5443 5443 5443 5443 5442 5442 5442 5442 5443 5443 5445 5446 5447 5447 5446 5445 5445 5445 5444 5443 5443 5442 5440 5438 5436 5435 5432 5429 5427 5426 5423 5421 5419 5416 5414 5412 5410 5411
5430 5431 5431 5432 5432 5432 5432 5431 5430 5430 5430 5430 5430 5431 5431 5432 5433 5434 5435 5434 5434 5434 5434 5433 5433 5432 5431 5429 5427 5425 5424 5423 5420 5419 5416 5414 5412 5410 5407 5404 5401 5399 5398
5418 5419 5419 5419 5419 5420 5419 5419 5418 5418 5417 5417 5418 5418 5419 5420 5421 5422 5423 5422 5422 5422 5422 5422 5422 5421 5421 5419 5417 5414 5414 5412 5410 5408 5406 5405 5403 5400 5398 5395 5392 5389 5388
5406 5406 5406 5406 5407 5407 5406 5406 5405 5405 5404 5405 5405 5406 5406 5408 5410 5411 5411 5411 5411 5411 5411 5411 5411 5411 5410 5408 5406 5405 5404 5401 5399 5398 5396 5395 5393 5391 5389 5387 5384 5382 5380
5393 5393 5392 5393 5393 5393 5393 5392 5392 5392 5392 5393 5393 5394 5395 5396 5397 5399 5400 5400 5400 5400 5400 5401 5401 5400 5398 5396 5395 5394 5392 5389 5388 5387 5386 5384 5383 5381 5379 5378 5376 5375 5373
5381 5380 5380 5380 5380 5380 5380 5381 5380 5380 5380 5381 5382 5383 5384 5385 5386 5388 5389 5389 5390 5390 5390 5390 5390 5389 5387 5386 5384 5382 5380 5378 5377 5376 5375 5374 5373 5372 5370 5369 5368 5367 5366
5369 5368 5368 5368 5368 5368 5369 5369 5369 5369 5370 5371 5372 5373 5374 5375 5377 5379 5379 5380 5380 5381 5381 5380 5379 5378 5376 5374 5373 5371 5370 5368 5367 5366 5365 5364 5363 5363 5362 5360 5359 5358 5356
5358 5358 5357 5357 5357 5357 5358 5358 5358 5360 5361 5362 5363 5364 5365 5367 5369 5370 5371 5371 5372 5372 5372 5370 5369 5367 5366 5364 5363 5361 5360 5358 5358 5357 5356 5355 5355 5354 5354 5353 5351 5350 5348
5348 5348 5348 5347 5347 5347 5347 5347 5347 5348 5350 5352 5353 5355 5356 5358 5359 5360 5361 5362 5363 5363 5361 5360 5359 5357 5356 5354 5353 5351 5350 5350 5349 5348 5348 5347 5347 5346 5346 5345 5344 5343 5341
5338 5339 5339 5338 5338 5337 5337 5337 5337 5338 5339 5340 5343 5344 5346 5347 5348 5349 5350 5351 5351 5351 5349 5349 5348 5347 5346 5345 5344 5343 5342 5342 5341 5341 5340 5340 5339 5339 5339 5338 5337 5335 5334
5329 5329 5329 5329 5329 5329 5329 5329 5329 5329 5330 5330 5332 5333 5335 5336 5337 5338 5339 5338 5339 5339 5338 5338 5337 5337 5337 5336 5335 5335 5334 5334 5333 5333 5333 5333 5332 5332 5331 5330 5329 5329 5328
5321 5322 5322 5321 5321 5321 5321 5321 5321 5321 5321 5321 5322 5323 5325 5326 5326 5327 5327 5327 5328 5328 5328 5328 5328 5328 5328 5328 5328 5327 5327 5327 5327 5327 5327 5327 5326 5326 5325 5324 5324 5323 5322
5312 5312 5314 5313 5313 5313 5312 5312 5312 5312 5312 5313 5313 5315 5317 5317 5317 5317 5317 5318 5318 5319 5320 5320 5320 5321 5321 5321 5321 5321 5320 5321 5321 5321 5321 5321 5321 5320 5320 5319 5318 5318 5317
5303 5303 5304 5304 5304 5304 5304 5304 5304 5305 5305 5305 5305 5306 5308 5308 5308 5308 5309 5310 5310 5311 5312 5313 5313 5314 5314 5314 5314 5314 5315 5315 5316 5316 5316 5316 5316 5315 5315 5315 5314 5313 5313
5295 5295 5295 5296 5296 5297 5297 5297 5297 5297 5297 5297 5298 5299 5299 5300 5300 5301 5302 5303 5304 5305 5306 5306 5307 5308 5308 5309 5309 5309 5310 5311 5311 5312 5312 5312 5312 5312 5311 5311 5310 5309 5308
5287 5287 5288 5288 5288 5289 5289 5289 5289 5290 5290 5290 5291 5292 5292 5293 5294 5295 5296 5297 5298 5299 5300 5300 5301 5302 5303 5303 5304 5305 5306 5306 5307 5307 5308 5308 5308 5308 5308 5307 5307 5306 5306
5280 5280 5280 5281 5281 5281 5282 5282 5282 5283 5283 5284 5285 5285 5286 5287 5288 5289 5290 5291 5292 5293 5294 5295 5296 5297 5298 5299 5300 5302 5302 5303 5303 5304 5305 5305 5305 5305 5305 5304 5304 5303 5303
5273 5274 5274 5274 5274 5274 5274 5275 5275 5276 5277 5278 5279 5279 5280 5281 5282 5284 5285 5286 5287 5288 5289 5290 5291 5293 5294 5296 5297 5298 5299 5300 5301 5302 5302 5303 5303 5302 5302 5301 5301 5301 5301